[[{"header":{"parameterUnit":"m.s-1","parameterCategory":1,"la1":30.2991,"la2":30.254,"lo1":-89.0895,"lo2":-89.0444,"dy":0.0017,"dx":0.0017,"nx":28,"ny":28,"refTime":"2026-02-24T09:00:00:Z","depth":0,"parameterNumber":2,"parameterNumberName":"U-component_of_WINDS"},"data":[0,0,0,0,0,0,0,0,0,0,0,0,0,0,0,0,0,0,0,0,0,0,0,0,0,0,0,0,0,0,0,0,0,0,0,0,0,0,0,0,0,0,0,0,0,0,0,0,0,0,0,0,0,0,0,0,0,0,-3.7649,-3.765,0,-3.7711,-3.7712,-3.7713,-3.7606,-3.7602,-3.7599,-3.7595,-3.7657,-3.7662,-3.7667,0,0,0,0,0,0,0,0,0,0,0,0,0,-3.7435,-3.744,-3.7649,-3.765,-3.7651,-3.7711,-3.7712,-3.7713,-3.7606,-3.7602,-3.7598,-3.7593,-3.7655,-3.7661,-3.7667,0,0,0,0,0,0,0,0,0,0,0,0,0,-3.7516,-3.7441,-3.7649,-3.7605,-3.7602,-3.7711,-3.7712,-3.7713,-3.7607,-3.7602,-3.7596,-3.7591,-3.7653,-3.7661,-3.7668,-3.7823,0,0,-3.7691,-3.7694,0,0,0,0,0,0,0,0,-3.7511,-3.7524,-3.7611,-3.7608,-3.7605,-3.7645,-3.7659,-3.775,-3.7609,-3.7605,-3.7595,-3.7589,-3.7657,-3.7664,-3.7688,-3.7826,-3.7829,-3.7692,-3.7696,-3.77,-3.7702,0,0,0,0,0,0,0,-3.7506,-3.7521,-3.7674,-3.7612,-3.7609,-3.7581,-3.7586,-3.7676,-3.7661,-3.7605,-3.7597,-3.7606,-3.7655,-3.7681,-3.7688,-3.783,-3.7692,-3.7698,-3.7703,-3.7706,-3.8094,-3.8099,0,0,0,0,0,0,-3.7506,-3.7517,-3.7672,-3.7676,-3.7544,-3.7589,-3.7595,-3.7638,-3.766,-3.7658,-3.7611,-3.7601,-3.7671,-3.768,-3.769,-3.787,-3.77,-3.7707,-3.7711,-3.8088,-3.8095,-3.8101,0,0,0,0,0,0,-3.7502,-3.7521,-3.7669,-3.7594,-3.7611,-3.7599,-3.7647,-3.7642,-3.7668,-3.7664,-3.7661,-3.764,-3.7667,-3.768,-3.779,-3.787,-3.771,-3.7717,-3.8081,-3.809,-3.8098,-3.8232,0,0,0,0,0,0,-3.7496,-3.752,-3.758,-3.7596,-3.7615,-3.777,-3.7652,-3.7647,-3.7681,-3.7669,-3.7691,-3.7689,-3.7663,-3.7779,-3.7798,-3.7878,-3.7723,-3.8074,-3.8085,-3.8095,-3.822,-3.8244,-3.8265,0,0,0,0,0,-3.7489,-3.7616,-3.7584,-3.7603,-3.769,-3.7774,-3.7785,-3.7753,-3.7688,-3.7747,-3.7744,-3.7689,-3.7859,-3.7792,-3.7811,-3.7895,-3.8068,-3.8082,-3.8094,-3.821,-3.824,-3.8264,0,0,0,0,0,0,-3.7609,-3.7617,-3.7581,-3.7718,-3.7746,-3.7756,-3.783,-3.7786,-3.7833,-3.782,-3.7778,-3.7783,-3.7902,-3.791,-3.7834,-3.8044,-3.7953,-3.797,-3.8034,-3.8062,-3.8084,-3.8078,-3.7729,0,0,0,0,0,-3.7652,-3.7721,-3.7724,-3.7843,-3.7859,-3.7843,-3.7878,-3.7851,-3.7879,-3.789,-3.7895,-3.7924,-3.7983,-3.8023,-3.8078,-3.8222,-3.8223,-3.8289,-3.8311,-3.8329,-3.8344,-3.8416,-3.8445,-3.8144,-3.8144,-3.8144,0,0,-3.774,-3.7753,-3.7799,-3.7867,-3.7886,-3.7957,-3.7853,-3.7933,-3.7984,-3.7902,-3.8005,-3.8011,-3.8039,-3.8166,-3.8222,-3.8176,-3.8428,-3.8346,-3.836,-3.8365,-3.8433,-3.8461,-3.8487,-3.8153,-3.8151,-3.815,0,0,-3.7935,-3.7954,-3.8053,-3.8074,-3.8104,-3.8092,-3.8116,-3.8132,-3.8132,-3.8236,-3.8174,-3.8235,-3.8339,-3.8361,-3.8386,-3.8588,-3.8537,-3.8607,-3.8722,-3.8793,-3.8817,-3.8838,-3.8906,-3.8932,-3.8623,-3.8623,-3.8623,0,-3.8041,-3.8146,-3.811,-3.8193,-3.8224,-3.8153,-3.8252,-3.8274,-3.8321,-3.8343,-3.8291,-3.8418,-3.8433,-3.8562,-3.8611,-3.8635,-3.8659,-3.8603,-3.8817,-3.8837,-3.8856,-3.8921,-3.8947,-3.8631,-3.863,-3.8629,-3.8629,0,-3.8272,-3.8345,-3.8422,-3.8468,-3.8507,-3.8599,-3.8575,-3.862,-3.8589,-3.8582,-3.8686,-3.8701,-3.8756,-3.8785,-3.8757,-3.891,-3.888,-3.8824,-3.873,-3.8893,-3.8953,-3.8978,-3.8643,-3.864,-3.8637,-3.8635,0,0,-3.8544,-3.8568,-3.8597,-3.8615,-3.8642,-3.8697,-3.8784,-3.8838,-3.8875,-3.891,-3.8979,-3.9069,-3.9016,-3.9044,-3.9017,-3.908,-3.9235,-3.9015,-3.9015,-3.9053,-3.94,-3.944,-3.9469,-3.9202,-3.9207,-3.9211,-3.9396,0,-3.8736,-3.8886,-3.8855,-3.9001,-3.9067,-3.8999,-3.9074,-3.9098,-3.9094,-3.9147,-3.9142,-3.9204,-3.9132,-3.9148,-3.9208,-3.9204,-3.9303,-3.919,-3.9264,-3.9267,-3.9256,-3.9501,-3.9544,-3.9718,-3.942,-3.9424,-3.9427,0,-3.898,-3.9022,-3.9174,-3.9187,-3.9214,-3.9282,-3.9327,-3.9381,-3.9405,-3.9397,-3.9428,-3.9388,-3.9472,-3.9381,-3.9494,-3.9418,-3.9446,-3.9449,-3.9455,-3.9458,-3.9355,-3.9507,-3.9773,-3.9798,-3.9464,-3.9461,-3.9458,0,-3.9158,-3.9254,-3.9356,-3.9374,-3.9394,-3.9443,-3.9453,-3.9472,-3.9506,-3.9545,-3.9566,-3.9615,-3.9642,-3.968,-3.9654,-3.959,-3.977,-3.9677,-3.9763,-3.9764,-3.9802,-3.9799,-4.0073,-3.9827,-3.9827,-3.9826,-3.9826,0,-3.9374,-3.9468,-3.9436,-3.9499,-3.9602,-3.9566,-3.9669,-3.9672,-3.9689,-3.975,-3.9696,-3.9753,-3.9717,-3.9771,-3.9752,-3.9846,-3.986,-3.9854,-3.9847,-3.9857,-3.9857,-3.9872,-3.9858,-3.9833,-3.9831,-3.983,-3.9829,0,-3.959,-3.9573,-3.9679,-3.9688,-3.9693,-3.9768,-3.9775,-3.9832,-3.9823,-3.9901,-3.9917,-3.9902,-3.9963,-3.9942,-4.0007,-3.9994,-4.0113,-4.0093,-4.0105,-4.0098,-4.0184,-4.0175,-4.0475,-4.051,-4.0245,-4.0248,-4.025,0,-3.9727,-3.9798,-3.9814,-3.9851,-3.9865,-3.9925,-3.9958,-3.9925,-3.9962,-3.9994,-4.0047,-4.0103,-4.0146,-4.0246,-4.0241,-4.029,-4.0267,-4.0369,-4.0274,-4.0281,-4.0264,-4.0259,-4.0264,-4.0387,-4.039,-4.0392,-4.0395,0,-3.997,-3.9957,-4.0008,-4.0055,-4.0095,-4.0131,-4.0161,-4.0194,-4.0163,-4.0206,-4.0268,-4.0301,-4.0367,-4.0422,-4.0466,-4.0475,-4.0429,-4.0425,-4.0446,-4.0456,-4.0458,-4.0454,-4.0153,-4.0417,-4.0415,-4.0413,-4.0412,-4.0411,-4.0148,-4.0207,-4.0227,-4.0283,-4.0303,-4.0332,-4.0385,-4.0382,-4.0433,-4.0484,-4.0462,-4.0532,-4.0552,-4.0606,-4.0621,-4.0674,-4.0634,-4.0667,-4.0675,-4.0682,-4.0692,-4.0453,-4.0682,-4.0682,-4.0681,-4.0681,-4.068,0,-4.0385,-4.0395,-4.0447,-4.0491,-4.0535,-4.0489,-4.052,-4.0559,-4.0621,-4.0645,-4.0687,-4.0756,-4.0809,-4.0808,-4.0857,-4.0899,-4.0879,-4.0913,-4.0907,-4.0909,-4.0726,-4.0701,-4.0928,-4.0928,-4.0928,-4.0928,-4.0928,-4.0928,-4.0514,-4.0609,-4.0599,-4.0702,-4.071,-4.0778,-4.0799,-4.0825,-4.0843,-4.0922,-4.0966,-4.0965,-4.0977,-4.1026,-4.1071,-4.1069,-4.1088,-4.1129,-4.1119,-4.0947,-4.0923,-4.0899,-4.0875,-4.1135,-4.1135,-4.1297,-4.1298,-4.13]},{"header":{"parameterUnit":"m.s-1","parameterCategory":1,"la1":30.2991,"la2":30.254,"lo1":-89.0895,"lo2":-89.0444,"dy":0.0017,"dx":0.0017,"nx":28,"ny":28,"refTime":"2026-02-24T09:00:00:Z","depth":0,"parameterNumber":3,"parameterNumberName":"V-component_of_WINDS"},"data":[0,0,0,0,0,0,0,0,0,0,0,0,0,0,0,0,0,0,0,0,0,0,0,0,0,0,0,0,0,0,0,0,0,0,0,0,0,0,0,0,0,0,0,0,0,0,0,0,0,0,0,0,0,0,0,0,0,0,-2.6969,-2.697,0,-2.7064,-2.7066,-2.7067,-2.7054,-2.7052,-2.7051,-2.7049,-2.7145,-2.7149,-2.7153,0,0,0,0,0,0,0,0,0,0,0,0,0,-2.6772,-2.6775,-2.6969,-2.697,-2.6971,-2.7064,-2.7066,-2.7067,-2.7054,-2.7052,-2.705,-2.7049,-2.7144,-2.7148,-2.7153,0,0,0,0,0,0,0,0,0,0,0,0,0,-2.6861,-2.6777,-2.6969,-2.6976,-2.6978,-2.7064,-2.7066,-2.7067,-2.7055,-2.7052,-2.705,-2.7048,-2.7142,-2.7148,-2.7154,-2.7238,0,0,-2.7172,-2.7175,0,0,0,0,0,0,0,0,-2.6856,-2.6868,-2.6974,-2.6976,-2.6978,-2.7045,-2.7031,-2.7124,-2.7055,-2.7025,-2.7049,-2.7047,-2.7113,-2.7122,-2.7145,-2.7243,-2.7247,-2.7173,-2.7176,-2.7179,-2.7181,0,0,0,0,0,0,0,-2.685,-2.6864,-2.7007,-2.6975,-2.6978,-2.6973,-2.6984,-2.7049,-2.7081,-2.7028,-2.7027,-2.7039,-2.7114,-2.7139,-2.7147,-2.7248,-2.7173,-2.7178,-2.7182,-2.7184,-2.7417,-2.7419,0,0,0,0,0,0,-2.6842,-2.6859,-2.7004,-2.7009,-2.691,-2.6979,-2.699,-2.7026,-2.7081,-2.7087,-2.7041,-2.7038,-2.713,-2.714,-2.715,-2.725,-2.7179,-2.7185,-2.7188,-2.7414,-2.7417,-2.742,0,0,0,0,0,0,-2.6838,-2.6855,-2.7,-2.6934,-2.6952,-2.6985,-2.7025,-2.7029,-2.7054,-2.709,-2.7096,-2.706,-2.7128,-2.7142,-2.7216,-2.7254,-2.7187,-2.7193,-2.7411,-2.7415,-2.7419,-2.7453,0,0,0,0,0,0,-2.6832,-2.6854,-2.6887,-2.6935,-2.6956,-2.7065,-2.7027,-2.7032,-2.7064,-2.7062,-2.711,-2.7116,-2.7128,-2.7207,-2.7222,-2.7261,-2.7198,-2.7408,-2.7413,-2.7418,-2.7448,-2.7457,-2.7465,0,0,0,0,0,-2.6825,-2.6893,-2.6889,-2.6906,-2.6998,-2.7067,-2.7079,-2.7091,-2.7068,-2.71,-2.7123,-2.7114,-2.7247,-2.7215,-2.7231,-2.7273,-2.7406,-2.7412,-2.7417,-2.7445,-2.7456,-2.7465,0,0,0,0,0,0,-2.6849,-2.69,-2.6896,-2.6981,-2.702,-2.7065,-2.7107,-2.7103,-2.7149,-2.7144,-2.7157,-2.7168,-2.7243,-2.7265,-2.7228,-2.7355,-2.7323,-2.7332,-2.7338,-2.7349,-2.7357,-2.7349,-2.7203,0,0,0,0,0,-2.6864,-2.6916,-2.6958,-2.7029,-2.7049,-2.7075,-2.7105,-2.7111,-2.7152,-2.7168,-2.7197,-2.7236,-2.7286,-2.7319,-2.7367,-2.7452,-2.7461,-2.7488,-2.7496,-2.7503,-2.7511,-2.7555,-2.7566,-2.7439,-2.7439,-2.7439,0,0,-2.6895,-2.693,-2.6962,-2.7034,-2.7065,-2.7118,-2.7089,-2.7146,-2.7185,-2.7177,-2.7248,-2.727,-2.7314,-2.7393,-2.743,-2.7414,-2.7548,-2.751,-2.7515,-2.7519,-2.7562,-2.7574,-2.7584,-2.7443,-2.7442,-2.7442,0,0,-2.6979,-2.7012,-2.7073,-2.7105,-2.7152,-2.7168,-2.7183,-2.7229,-2.7243,-2.7315,-2.7309,-2.7355,-2.7442,-2.7473,-2.75,-2.7594,-2.7586,-2.7609,-2.7652,-2.7695,-2.7705,-2.7714,-2.7745,-2.7756,-2.7617,-2.7617,-2.7617,0,-2.7013,-2.7093,-2.7106,-2.7163,-2.7194,-2.7189,-2.7251,-2.728,-2.7341,-2.7361,-2.7344,-2.7451,-2.7481,-2.7566,-2.7588,-2.7611,-2.7627,-2.7603,-2.7702,-2.7711,-2.772,-2.775,-2.7762,-2.7619,-2.7619,-2.7619,-2.7618,0,-2.713,-2.7186,-2.723,-2.7288,-2.7324,-2.7383,-2.7403,-2.7438,-2.7441,-2.7458,-2.753,-2.7566,-2.762,-2.7641,-2.7644,-2.7726,-2.7714,-2.77,-2.7667,-2.7734,-2.7763,-2.7774,-2.7623,-2.7622,-2.7621,-2.762,0,0,-2.7232,-2.7296,-2.7311,-2.7337,-2.7387,-2.743,-2.7488,-2.7542,-2.757,-2.7611,-2.7659,-2.7732,-2.7718,-2.7748,-2.7755,-2.7793,-2.7862,-2.7773,-2.7774,-2.7787,-2.7952,-2.7962,-2.7975,-2.7858,-2.786,-2.7862,-2.7947,0,-2.732,-2.7424,-2.7436,-2.7528,-2.7578,-2.7573,-2.7623,-2.7659,-2.7676,-2.772,-2.774,-2.779,-2.7769,-2.7787,-2.7824,-2.7846,-2.7895,-2.784,-2.7901,-2.7903,-2.7889,-2.799,-2.8002,-2.8081,-2.7959,-2.7961,-2.7962,0,-2.7437,-2.7481,-2.7578,-2.7619,-2.7641,-2.7686,-2.7735,-2.7778,-2.7817,-2.7827,-2.7861,-2.7862,-2.792,-2.7885,-2.7965,-2.7927,-2.7952,-2.7966,-2.797,-2.7975,-2.7936,-2.7997,-2.8107,-2.8118,-2.798,-2.7979,-2.7977,0,-2.7499,-2.7583,-2.7651,-2.7673,-2.7724,-2.7755,-2.7778,-2.7815,-2.7846,-2.7888,-2.7908,-2.7956,-2.7982,-2.8019,-2.8032,-2.8007,-2.811,-2.8078,-2.8119,-2.8118,-2.814,-2.8139,-2.8254,-2.8159,-2.8159,-2.8159,-2.8158,0,-2.7595,-2.7654,-2.7679,-2.7721,-2.7786,-2.7799,-2.7862,-2.7883,-2.7916,-2.796,-2.7959,-2.8001,-2.8017,-2.806,-2.8071,-2.8134,-2.8146,-2.8155,-2.8157,-2.8154,-2.8153,-2.817,-2.8165,-2.8162,-2.8161,-2.816,-2.816,0,-2.7675,-2.7695,-2.7769,-2.781,-2.7822,-2.7868,-2.7903,-2.7943,-2.7959,-2.8015,-2.8029,-2.8055,-2.8107,-2.8124,-2.8186,-2.8193,-2.8265,-2.8263,-2.8252,-2.8252,-2.8292,-2.8287,-2.8422,-2.8439,-2.8334,-2.8335,-2.8336,0,-2.7735,-2.778,-2.7826,-2.7856,-2.788,-2.7928,-2.7959,-2.7972,-2.8004,-2.8052,-2.8085,-2.8136,-2.8177,-2.8259,-2.8283,-2.8329,-2.8327,-2.8371,-2.8334,-2.833,-2.8326,-2.8323,-2.8326,-2.8378,-2.8379,-2.838,-2.8381,0,-2.7837,-2.7844,-2.7889,-2.7938,-2.7975,-2.8013,-2.805,-2.8074,-2.8093,-2.8129,-2.8181,-2.8213,-2.8276,-2.8326,-2.8373,-2.8395,-2.839,-2.8392,-2.8404,-2.8401,-2.8392,-2.8396,-2.8269,-2.8389,-2.8388,-2.8387,-2.8387,-2.8387,-2.7908,-2.7947,-2.7985,-2.8035,-2.8064,-2.8098,-2.8137,-2.8158,-2.8202,-2.8254,-2.8259,-2.8315,-2.8351,-2.8415,-2.8439,-2.8482,-2.8469,-2.8487,-2.8491,-2.8495,-2.8497,-2.8386,-2.8491,-2.849,-2.849,-2.849,-2.849,0,-2.8009,-2.8033,-2.8078,-2.813,-2.8169,-2.8161,-2.8202,-2.8234,-2.8283,-2.8318,-2.8358,-2.8417,-2.8465,-2.8492,-2.8539,-2.8568,-2.8567,-2.858,-2.8578,-2.8582,-2.8506,-2.8491,-2.858,-2.858,-2.858,-2.858,-2.858,-2.858,-2.8066,-2.8131,-2.8142,-2.822,-2.8244,-2.8299,-2.8322,-2.8353,-2.838,-2.8446,-2.8486,-2.8503,-2.8534,-2.8584,-2.8627,-2.8633,-2.865,-2.8664,-2.8669,-2.8597,-2.8588,-2.8579,-2.8564,-2.8668,-2.8668,-2.8741,-2.8742,-2.8742]}]]